QPF
0.11 0.09 0.07 0.06 0.05 0.05 0.04 0.03 0.02 0.01 0.01 0.00 0.00 0.00 0.00 0.00 0.00 0.00 0.00 0.00 0.00 0.00 0.00 0.00 0.00 0.00 0.00 0.00 0.01 0.01 0.01 0.01 0.01 0.01 0.02 0.02 0.03 0.03
0.12 0.12 0.09 0.07 0.06 0.05 0.05 0.03 0.01 0.01 0.01 0.00 0.00 0.00 0.00 0.00 0.00 0.00 0.00 0.00 0.01 0.01 0.01 0.01 0.01 0.00 0.00 0.00 0.01 0.01 0.01 0.01 0.01 0.01 0.02 0.02 0.02 0.03
0.11 0.12 0.11 0.09 0.07 0.06 0.05 0.03 0.01 0.01 0.01 0.00 0.00 0.00 0.00 0.00 0.00 0.00 0.00 0.01 0.01 0.01 0.01 0.01 0.00 0.00 0.01 0.01 0.01 0.01 0.01 0.01 0.01 0.01 0.02 0.02 0.02 0.02
0.11 0.11 0.10 0.09 0.09 0.07 0.05 0.03 0.02 0.01 0.01 0.01 0.00 0.00 0.00 0.00 0.00 0.00 0.01 0.01 0.01 0.01 0.01 0.01 0.01 0.01 0.01 0.01 0.01 0.01 0.01 0.01 0.01 0.01 0.02 0.02 0.02 0.02
0.12 0.11 0.09 0.08 0.08 0.07 0.05 0.04 0.03 0.02 0.01 0.00 0.00 0.00 0.00 0.00 0.00 0.01 0.01 0.01 0.01 0.02 0.02 0.02 0.01 0.01 0.01 0.01 0.01 0.01 0.01 0.01 0.01 0.01 0.01 0.01 0.01 0.02
0.13 0.12 0.10 0.08 0.07 0.06 0.05 0.05 0.04 0.02 0.01 0.01 0.01 0.00 0.00 0.00 0.00 0.01 0.02 0.02 0.02 0.02 0.02 0.02 0.02 0.02 0.02 0.01 0.01 0.01 0.01 0.01 0.01 0.01 0.01 0.01 0.01 0.01
0.14 0.14 0.12 0.09 0.07 0.06 0.05 0.05 0.04 0.03 0.02 0.01 0.01 0.01 0.01 0.01 0.01 0.01 0.02 0.03 0.03 0.03 0.03 0.03 0.03 0.03 0.02 0.02 0.02 0.02 0.02 0.02 0.01 0.01 0.01 0.01 0.01 0.01
0.15 0.13 0.12 0.10 0.08 0.07 0.06 0.05 0.04 0.03 0.03 0.02 0.02 0.02 0.01 0.01 0.01 0.02 0.04 0.05 0.05 0.04 0.04 0.04 0.04 0.04 0.03 0.03 0.03 0.02 0.02 0.02 0.01 0.01 0.01 0.01 0.01 0.01
0.15 0.13 0.13 0.11 0.10 0.08 0.07 0.05 0.04 0.03 0.02 0.02 0.02 0.01 0.02 0.02 0.03 0.04 0.05 0.06 0.05 0.05 0.05 0.04 0.04 0.03 0.03 0.03 0.03 0.02 0.01 0.01 0.01 0.01 0.01 0.01 0.01 0.01
0.13 0.12 0.12 0.12 0.11 0.08 0.06 0.05 0.04 0.03 0.02 0.01 0.01 0.01 0.02 0.02 0.03 0.05 0.06 0.06 0.05 0.04 0.04 0.04 0.03 0.03 0.02 0.02 0.02 0.02 0.01 0.01 0.01 0.01 0.01 0.01 0.01 0.01
0.13 0.12 0.12 0.11 0.11 0.09 0.08 0.06 0.05 0.03 0.03 0.03 0.03 0.03 0.03 0.03 0.04 0.04 0.05 0.05 0.04 0.04 0.03 0.03 0.03 0.02 0.02 0.01 0.02 0.02 0.01 0.01 0.01 0.01 0.01 0.01 0.01 0.01
0.16 0.14 0.13 0.11 0.10 0.09 0.07 0.06 0.05 0.03 0.03 0.03 0.04 0.05 0.04 0.04 0.04 0.04 0.03 0.04 0.04 0.04 0.03 0.02 0.02 0.02 0.02 0.01 0.01 0.01 0.01 0.01 0.00 0.00 0.01 0.01 0.01 0.00
0.18 0.18 0.13 0.11 0.09 0.07 0.07 0.07 0.06 0.05 0.05 0.06 0.06 0.06 0.05 0.05 0.05 0.04 0.05 0.05 0.05 0.04 0.03 0.03 0.02 0.02 0.02 0.02 0.01 0.01 0.01 0.00 0.00 0.00 0.00 0.00 0.01 0.01
0.12 0.13 0.13 0.13 0.10 0.08 0.07 0.07 0.07 0.07 0.06 0.07 0.06 0.05 0.04 0.04 0.04 0.05 0.06 0.06 0.05 0.04 0.03 0.03 0.03 0.03 0.03 0.02 0.02 0.01 0.01 0.00 0.00 0.00 0.00 0.00 0.00 0.00
0.09 0.11 0.12 0.11 0.10 0.10 0.10 0.09 0.08 0.06 0.06 0.06 0.06 0.06 0.05 0.05 0.05 0.05 0.06 0.06 0.05 0.04 0.03 0.03 0.02 0.02 0.02 0.02 0.01 0.01 0.01 0.01 0.00 0.00 0.00 0.01 0.01 0.01
0.10 0.12 0.13 0.13 0.10 0.09 0.10 0.11 0.09 0.07 0.06 0.05 0.05 0.06 0.06 0.06 0.06 0.06 0.06 0.05 0.05 0.05 0.04 0.03 0.02 0.02 0.02 0.01 0.01 0.01 0.01 0.01 0.01 0.00 0.00 0.00 0.01 0.01
0.11 0.12 0.14 0.14 0.13 0.09 0.07 0.07 0.06 0.07 0.09 0.08 0.07 0.06 0.06 0.06 0.06 0.06 0.06 0.06 0.05 0.05 0.04 0.03 0.02 0.02 0.01 0.01 0.01 0.01 0.01 0.01 0.01 0.01 0.00 0.00 0.00 0.01
0.12 0.11 0.11 0.11 0.11 0.09 0.07 0.06 0.06 0.05 0.06 0.07 0.08 0.08 0.08 0.07 0.07 0.08 0.08 0.08 0.07 0.06 0.05 0.04 0.03 0.02 0.01 0.01 0.01 0.01 0.01 0.01 0.01 0.00 0.00 0.01 0.01 0.00
0.11 0.10 0.09 0.10 0.10 0.09 0.08 0.06 0.06 0.05 0.05 0.06 0.06 0.06 0.07 0.09 0.09 0.10 0.10 0.10 0.08 0.07 0.06 0.05 0.04 0.03 0.02 0.01 0.01 0.01 0.02 0.01 0.01 0.00 0.00 0.01 0.01 0.01
0.09 0.09 0.09 0.09 0.09 0.09 0.09 0.08 0.07 0.07 0.07 0.07 0.06 0.06 0.06 0.07 0.09 0.09 0.10 0.09 0.09 0.08 0.07 0.05 0.04 0.04 0.03 0.02 0.02 0.02 0.01 0.02 0.01 0.01 0.01 0.00 0.00 0.00
0.08 0.09 0.10 0.10 0.10 0.10 0.10 0.09 0.09 0.09 0.09 0.09 0.08 0.07 0.07 0.07 0.08 0.08 0.08 0.08 0.07 0.06 0.06 0.05 0.04 0.03 0.03 0.03 0.02 0.02 0.02 0.01 0.01 0.01 0.01 0.01 0.01 0.00
0.07 0.09 0.10 0.11 0.11 0.10 0.10 0.10 0.10 0.10 0.10 0.10 0.09 0.08 0.08 0.09 0.08 0.08 0.07 0.06 0.05 0.04 0.04 0.04 0.04 0.03 0.03 0.03 0.02 0.02 0.02 0.02 0.01 0.01 0.01 0.02 0.03 0.03
0.08 0.09 0.09 0.10 0.12 0.11 0.10 0.10 0.09 0.08 0.08 0.08 0.08 0.08 0.09 0.09 0.10 0.09 0.08 0.06 0.05 0.05 0.04 0.04 0.03 0.03 0.02 0.02 0.02 0.02 0.02 0.01 0.01 0.01 0.01 0.01 0.02 0.03
MSLP
999.34 1000.46 1001.54 1002.52 1003.40 1004.19 1004.90 1005.57 1006.22 1006.88 1007.54 1008.20 1008.84 1009.43 1009.96 1010.41 1010.79 1011.11 1011.40 1011.69 1011.99 1012.33 1012.71 1013.10 1013.50 1013.88 1014.20 1014.45 1014.61 1014.69 1014.69 1014.64 1014.53 1014.39 1014.21 1014.01 1013.76 1013.48
999.13 1000.18 1001.18 1002.09 1002.91 1003.63 1004.30 1004.94 1005.58 1006.25 1006.95 1007.67 1008.39 1009.07 1009.69 1010.24 1010.71 1011.11 1011.45 1011.76 1012.07 1012.39 1012.73 1013.09 1013.45 1013.78 1014.06 1014.28 1014.42 1014.49 1014.48 1014.41 1014.30 1014.15 1013.99 1013.80 1013.58 1013.32
998.91 999.88 1000.81 1001.67 1002.44 1003.14 1003.78 1004.41 1005.06 1005.74 1006.47 1007.23 1008.01 1008.77 1009.48 1010.12 1010.67 1011.14 1011.53 1011.88 1012.20 1012.51 1012.82 1013.13 1013.43 1013.71 1013.94 1014.11 1014.22 1014.25 1014.22 1014.15 1014.04 1013.90 1013.75 1013.58 1013.39 1013.17
998.61 999.52 1000.41 1001.25 1002.02 1002.72 1003.37 1004.00 1004.66 1005.35 1006.09 1006.88 1007.69 1008.50 1009.27 1009.98 1010.61 1011.14 1011.60 1011.99 1012.33 1012.64 1012.92 1013.19 1013.44 1013.66 1013.84 1013.96 1014.02 1014.03 1013.98 1013.90 1013.80 1013.67 1013.54 1013.39 1013.22 1013.03
998.22 999.08 999.96 1000.82 1001.61 1002.35 1003.04 1003.70 1004.37 1005.07 1005.81 1006.60 1007.41 1008.24 1009.04 1009.79 1010.48 1011.08 1011.60 1012.04 1012.42 1012.74 1013.03 1013.27 1013.48 1013.65 1013.78 1013.85 1013.87 1013.85 1013.79 1013.70 1013.60 1013.49 1013.37 1013.24 1013.09 1012.91
997.71 998.55 999.45 1000.35 1001.21 1002.02 1002.76 1003.47 1004.16 1004.86 1005.58 1006.34 1007.14 1007.95 1008.75 1009.53 1010.26 1010.92 1011.50 1012.01 1012.44 1012.80 1013.10 1013.35 1013.54 1013.68 1013.76 1013.80 1013.79 1013.74 1013.66 1013.57 1013.47 1013.36 1013.24 1013.12 1012.98 1012.81
997.09 997.93 998.87 999.84 1000.79 1001.68 1002.51 1003.27 1003.99 1004.69 1005.39 1006.11 1006.86 1007.64 1008.43 1009.21 1009.97 1010.68 1011.33 1011.91 1012.41 1012.82 1013.16 1013.42 1013.61 1013.73 1013.79 1013.80 1013.76 1013.69 1013.60 1013.50 1013.39 1013.27 1013.16 1013.03 1012.88 1012.70
996.38 997.23 998.22 999.27 1000.33 1001.33 1002.25 1003.08 1003.84 1004.54 1005.22 1005.91 1006.61 1007.35 1008.11 1008.89 1009.67 1010.43 1011.14 1011.79 1012.35 1012.83 1013.21 1013.50 1013.70 1013.82 1013.87 1013.85 1013.79 1013.70 1013.59 1013.47 1013.34 1013.22 1013.08 1012.94 1012.77 1012.58
995.65 996.51 997.55 998.69 999.85 1000.96 1001.98 1002.89 1003.71 1004.43 1005.11 1005.77 1006.44 1007.14 1007.88 1008.65 1009.45 1010.24 1011.00 1011.71 1012.33 1012.86 1013.29 1013.61 1013.82 1013.93 1013.96 1013.93 1013.84 1013.73 1013.59 1013.45 1013.30 1013.16 1013.00 1012.83 1012.64 1012.43
994.99 995.85 996.93 998.14 999.40 1000.61 1001.73 1002.74 1003.62 1004.39 1005.09 1005.75 1006.41 1007.10 1007.82 1008.60 1009.40 1010.21 1011.00 1011.75 1012.41 1012.98 1013.43 1013.75 1013.96 1014.07 1014.08 1014.02 1013.90 1013.75 1013.59 1013.42 1013.24 1013.07 1012.88 1012.69 1012.48 1012.25
994.48 995.34 996.44 997.70 999.03 1000.34 1001.56 1002.66 1003.63 1004.47 1005.22 1005.91 1006.58 1007.28 1008.01 1008.78 1009.59 1010.41 1011.21 1011.96 1012.63 1013.19 1013.63 1013.95 1014.13 1014.21 1014.18 1014.08 1013.93 1013.75 1013.55 1013.34 1013.13 1012.93 1012.72 1012.50 1012.28 1012.03
994.20 995.02 996.13 997.42 998.80 1000.19 1001.50 1002.70 1003.76 1004.69 1005.51 1006.27 1006.99 1007.71 1008.45 1009.23 1010.03 1010.84 1011.62 1012.34 1012.98 1013.51 1013.91 1014.18 1014.32 1014.34 1014.27 1014.12 1013.92 1013.69 1013.45 1013.21 1012.97 1012.73 1012.50 1012.27 1012.03 1011.78
994.16 994.95 996.04 997.34 998.76 1000.20 1001.59 1002.88 1004.03 1005.06 1005.98 1006.81 1007.60 1008.36 1009.13 1009.91 1010.69 1011.46 1012.20 1012.87 1013.44 1013.90 1014.22 1014.42 1014.49 1014.45 1014.31 1014.11 1013.86 1013.58 1013.29 1013.01 1012.74 1012.48 1012.22 1011.97 1011.72 1011.48
994.35 995.10 996.17 997.46 998.89 1000.37 1001.82 1003.18 1004.44 1005.56 1006.58 1007.50 1008.35 1009.17 1009.96 1010.74 1011.49 1012.21 1012.88 1013.47 1013.95 1014.31 1014.55 1014.65 1014.64 1014.52 1014.32 1014.05 1013.75 1013.42 1013.09 1012.77 1012.46 1012.16 1011.88 1011.62 1011.36 1011.12
994.71 995.44 996.48 997.75 999.18 1000.67 1002.16 1003.59 1004.92 1006.13 1007.24 1008.24 1009.17 1010.03 1010.84 1011.61 1012.33 1012.99 1013.57 1014.06 1014.44 1014.70 1014.83 1014.84 1014.75 1014.56 1014.29 1013.97 1013.61 1013.24 1012.86 1012.49 1012.14 1011.80 1011.49 1011.20 1010.93 1010.68
995.17 995.89 996.91 998.16 999.57 1001.07 1002.57 1004.04 1005.43 1006.72 1007.89 1008.97 1009.95 1010.85 1011.68 1012.43 1013.10 1013.70 1014.19 1014.59 1014.86 1015.02 1015.06 1014.99 1014.82 1014.57 1014.24 1013.87 1013.47 1013.05 1012.62 1012.20 1011.79 1011.40 1011.04 1010.71 1010.42 1010.15
995.65 996.37 997.38 998.61 1000.00 1001.49 1003.00 1004.49 1005.91 1007.25 1008.48 1009.61 1010.63 1011.56 1012.38 1013.11 1013.74 1014.27 1014.69 1015.00 1015.18 1015.26 1015.22 1015.09 1014.87 1014.57 1014.21 1013.80 1013.35 1012.88 1012.40 1011.92 1011.44 1010.99 1010.56 1010.18 1009.83 1009.54
996.08 996.83 997.84 999.07 1000.44 1001.91 1003.41 1004.90 1006.34 1007.70 1008.96 1010.12 1011.17 1012.11 1012.93 1013.63 1014.22 1014.69 1015.05 1015.28 1015.40 1015.42 1015.34 1015.16 1014.91 1014.59 1014.20 1013.76 1013.28 1012.76 1012.22 1011.66 1011.11 1010.56 1010.05 1009.59 1009.19 1008.84
996.47 997.26 998.29 999.51 1000.87 1002.31 1003.80 1005.28 1006.71 1008.08 1009.35 1010.52 1011.58 1012.51 1013.32 1014.00 1014.56 1014.98 1015.29 1015.48 1015.56 1015.54 1015.43 1015.24 1014.98 1014.65 1014.25 1013.79 1013.27 1012.70 1012.08 1011.44 1010.79 1010.15 1009.53 1008.98 1008.49 1008.09
996.82 997.66 998.72 999.94 1001.29 1002.72 1004.18 1005.64 1007.06 1008.41 1009.69 1010.85 1011.90 1012.83 1013.62 1014.27 1014.79 1015.19 1015.46 1015.62 1015.68 1015.64 1015.53 1015.35 1015.09 1014.76 1014.36 1013.88 1013.32 1012.69 1012.00 1011.26 1010.49 1009.74 1009.01 1008.35 1007.77 1007.30
997.18 998.09 999.18 1000.42 1001.76 1003.16 1004.60 1006.03 1007.42 1008.76 1010.01 1011.16 1012.19 1013.09 1013.86 1014.49 1014.99 1015.36 1015.60 1015.75 1015.80 1015.77 1015.67 1015.49 1015.25 1014.92 1014.51 1014.01 1013.41 1012.72 1011.94 1011.10 1010.22 1009.33 1008.49 1007.71 1007.04 1006.51
997.62 998.60 999.72 1000.97 1002.30 1003.69 1005.09 1006.49 1007.85 1009.15 1010.37 1011.49 1012.49 1013.37 1014.11 1014.71 1015.18 1015.53 1015.76 1015.90 1015.95 1015.93 1015.84 1015.68 1015.45 1015.13 1014.71 1014.18 1013.53 1012.76 1011.90 1010.95 1009.95 1008.94 1007.98 1007.09 1006.33 1005.73
998.19 999.22 1000.38 1001.63 1002.95 1004.31 1005.68 1007.03 1008.35 1009.60 1010.78 1011.87 1012.83 1013.67 1014.38 1014.95 1015.40 1015.73 1015.95 1016.08 1016.14 1016.13 1016.05 1015.91 1015.68 1015.36 1014.92 1014.36 1013.66 1012.82 1011.86 1010.81 1009.70 1008.58 1007.49 1006.51 1005.66 1005.00
Thickness
5598 5599 5601 5601 5601 5601 5601 5599 5594 5589 5587 5583 5579 5577 5574 5570 5566 5562 5557 5552 5547 5542 5535 5529 5522 5515 5508 5501 5494 5487 5480 5474 5467 5461 5456 5450 5444 5439
5592 5593 5594 5595 5594 5595 5595 5593 5592 5589 5584 5580 5575 5571 5567 5564 5560 5556 5551 5546 5540 5535 5529 5522 5515 5508 5501 5494 5487 5480 5473 5467 5460 5454 5448 5442 5436 5431
5587 5589 5590 5589 5588 5589 5588 5587 5585 5583 5580 5574 5568 5563 5559 5557 5554 5549 5544 5539 5534 5528 5522 5516 5509 5502 5495 5488 5481 5474 5467 5460 5453 5446 5440 5434 5428 5423
5584 5584 5585 5586 5584 5583 5582 5581 5580 5579 5575 5569 5561 5556 5553 5550 5546 5541 5536 5532 5526 5521 5515 5509 5502 5495 5488 5482 5475 5467 5460 5452 5445 5438 5432 5426 5420 5414
5580 5581 5582 5582 5580 5579 5578 5576 5574 5572 5569 5565 5556 5550 5545 5541 5537 5532 5528 5523 5519 5513 5507 5501 5495 5488 5481 5475 5468 5461 5453 5445 5438 5431 5424 5417 5412 5406
5576 5577 5578 5580 5579 5576 5575 5572 5568 5565 5562 5557 5550 5544 5538 5533 5529 5525 5520 5515 5510 5505 5499 5493 5487 5481 5474 5467 5461 5453 5445 5438 5430 5423 5416 5410 5404 5398
5571 5572 5574 5576 5576 5574 5572 5568 5564 5560 5555 5550 5545 5539 5532 5527 5524 5520 5514 5507 5502 5496 5490 5485 5480 5474 5467 5460 5452 5445 5438 5430 5423 5416 5409 5403 5397 5391
5566 5567 5568 5570 5570 5569 5568 5566 5563 5557 5552 5548 5543 5539 5533 5527 5521 5515 5507 5500 5495 5490 5483 5478 5472 5466 5460 5453 5446 5439 5431 5423 5416 5409 5402 5396 5390 5384
5561 5562 5563 5564 5564 5562 5561 5558 5556 5554 5552 5548 5542 5538 5532 5526 5518 5510 5503 5497 5492 5484 5476 5470 5465 5459 5454 5447 5439 5432 5424 5417 5410 5402 5396 5389 5383 5378
5556 5558 5559 5558 5557 5555 5552 5550 5547 5546 5545 5542 5539 5536 5530 5523 5517 5510 5501 5490 5481 5476 5471 5463 5457 5452 5447 5440 5433 5426 5418 5411 5403 5396 5389 5383 5377 5371
5549 5550 5551 5551 5551 5549 5546 5543 5540 5538 5536 5534 5531 5527 5522 5517 5510 5501 5492 5484 5476 5469 5464 5458 5451 5444 5439 5433 5426 5419 5412 5404 5397 5389 5383 5377 5372 5366
5540 5542 5544 5545 5545 5543 5540 5538 5535 5532 5528 5524 5520 5517 5512 5508 5503 5498 5491 5482 5472 5464 5459 5452 5444 5437 5430 5426 5419 5413 5405 5397 5390 5383 5376 5371 5366 5360
5533 5534 5537 5538 5537 5536 5535 5533 5532 5526 5519 5515 5511 5506 5502 5498 5493 5489 5485 5480 5471 5463 5457 5449 5439 5431 5423 5416 5411 5406 5398 5391 5383 5377 5371 5366 5361 5356
5525 5527 5529 5529 5529 5528 5527 5526 5522 5517 5512 5507 5503 5498 5494 5489 5485 5481 5476 5472 5467 5462 5454 5446 5436 5428 5418 5410 5404 5398 5392 5385 5378 5372 5366 5361 5357 5352
5517 5519 5519 5519 5519 5519 5518 5516 5513 5509 5506 5501 5497 5492 5488 5482 5477 5472 5466 5462 5458 5452 5446 5440 5433 5425 5416 5407 5398 5391 5385 5380 5374 5367 5362 5357 5352 5348
5506 5507 5508 5509 5510 5510 5508 5506 5504 5503 5501 5496 5491 5484 5479 5474 5470 5465 5459 5454 5447 5440 5436 5431 5426 5419 5411 5403 5394 5387 5381 5374 5369 5363 5358 5353 5349 5345
5496 5496 5496 5497 5498 5499 5498 5497 5495 5493 5491 5487 5482 5477 5472 5468 5463 5457 5452 5447 5441 5433 5426 5421 5417 5412 5406 5398 5389 5384 5378 5371 5365 5359 5354 5350 5347 5342
5488 5488 5488 5489 5491 5491 5491 5489 5487 5486 5484 5480 5476 5472 5468 5463 5457 5450 5445 5440 5435 5428 5420 5413 5408 5404 5398 5392 5387 5380 5374 5368 5362 5356 5351 5346 5343 5340
5480 5480 5481 5482 5482 5483 5483 5482 5481 5480 5477 5473 5469 5466 5461 5456 5451 5445 5439 5434 5428 5421 5414 5408 5403 5400 5394 5388 5380 5377 5370 5364 5358 5353 5348 5343 5339 5336
5471 5472 5474 5475 5476 5477 5477 5476 5474 5472 5469 5466 5462 5459 5454 5450 5445 5440 5435 5429 5423 5415 5408 5403 5399 5396 5392 5385 5376 5371 5367 5361 5355 5349 5344 5340 5336 5334
5462 5464 5467 5469 5470 5470 5470 5469 5468 5466 5463 5460 5456 5452 5449 5445 5441 5436 5430 5425 5418 5411 5405 5400 5395 5391 5385 5379 5371 5366 5363 5359 5353 5347 5342 5338 5334 5331
5455 5457 5459 5462 5463 5464 5463 5463 5461 5459 5456 5454 5451 5447 5444 5441 5437 5432 5427 5421 5414 5408 5402 5394 5389 5385 5380 5375 5368 5362 5357 5355 5351 5346 5342 5338 5332 5328
5447 5450 5452 5454 5456 5457 5457 5456 5455 5454 5452 5449 5446 5443 5440 5436 5432 5428 5422 5416 5410 5403 5397 5390 5384 5379 5375 5370 5363 5357 5353 5350 5346 5342 5339 5337 5333 5330